[[{"header":{"parameterUnit":"m.s-1","parameterCategory":1,"la1":30.2991,"la2":30.254,"lo1":-89.0895,"lo2":-89.0444,"dy":0.0017,"dx":0.0017,"nx":28,"ny":28,"refTime":"2024-07-01T21:00:00:Z","depth":0,"parameterNumber":2,"parameterNumberName":"U-component_of_WINDS"},"data":[0,0,0,0,0,0,0,0,0,0,0,0,0,0,0,0,0,0,0,0,0,0,0,0,0,0,0,0,0,0,0,0,0,0,0,0,0,0,0,0,0,0,0,0,0,0,0,0,0,0,0,0,0,0,0,0,0,0,-1.4105,-1.4104,0,-1.4068,-1.4068,-1.4067,-1.4059,-1.4059,-1.4059,-1.4059,-1.4019,-1.4017,-1.4016,0,0,0,0,0,0,0,0,0,0,0,0,0,-1.4164,-1.4163,-1.4105,-1.4104,-1.4104,-1.4068,-1.4068,-1.4067,-1.4058,-1.4059,-1.4059,-1.4059,-1.4019,-1.4017,-1.4016,0,0,0,0,0,0,0,0,0,0,0,0,0,-1.4134,-1.4163,-1.4105,-1.4095,-1.4094,-1.4068,-1.4068,-1.4067,-1.4058,-1.4059,-1.4059,-1.406,-1.4019,-1.4018,-1.4016,-1.3996,0,0,-1.401,-1.4009,0,0,0,0,0,0,0,0,-1.4136,-1.4132,-1.4097,-1.4096,-1.4095,-1.4068,-1.4074,-1.4043,-1.4058,-1.4072,-1.4059,-1.406,-1.4035,-1.4031,-1.4024,-1.3994,-1.3992,-1.4009,-1.4008,-1.4007,-1.4007,0,0,0,0,0,0,0,-1.4138,-1.4133,-1.409,-1.4097,-1.4095,-1.4092,-1.4088,-1.4068,-1.4051,-1.4071,-1.407,-1.4066,-1.4034,-1.4026,-1.4023,-1.3992,-1.4009,-1.4008,-1.4006,-1.4006,-1.3945,-1.3944,0,0,0,0,0,0,-1.4142,-1.4135,-1.4091,-1.4089,-1.4117,-1.4091,-1.4086,-1.4076,-1.4052,-1.4048,-1.4066,-1.4066,-1.4029,-1.4025,-1.4021,-1.3997,-1.4007,-1.4005,-1.4004,-1.3945,-1.3945,-1.3944,0,0,0,0,0,0,-1.4143,-1.4138,-1.4093,-1.4112,-1.4106,-1.4089,-1.4078,-1.4075,-1.4067,-1.4048,-1.4045,-1.406,-1.4029,-1.4024,-1.4003,-1.3995,-1.4005,-1.4003,-1.3946,-1.3945,-1.3944,-1.3948,0,0,0,0,0,0,-1.4145,-1.4139,-1.4132,-1.4112,-1.4105,-1.4076,-1.4078,-1.4074,-1.4064,-1.4064,-1.4042,-1.4039,-1.4029,-1.4006,-1.4001,-1.3993,-1.4001,-1.3946,-1.3945,-1.3945,-1.3948,-1.3947,-1.3947,0,0,0,0,0,-1.4147,-1.4133,-1.4131,-1.4126,-1.4096,-1.4075,-1.4071,-1.4061,-1.4064,-1.4056,-1.4044,-1.4039,-1.3997,-1.4004,-1.3998,-1.3989,-1.3947,-1.3946,-1.3945,-1.3949,-1.3948,-1.3947,0,0,0,0,0,0,-1.4151,-1.413,-1.4128,-1.4107,-1.4093,-1.4074,-1.4064,-1.406,-1.4044,-1.4044,-1.4031,-1.4026,-1.4006,-1.3995,-1.4003,-1.3969,-1.3972,-1.397,-1.3977,-1.3976,-1.3975,-1.3977,-1.4,0,0,0,0,0,-1.4149,-1.4135,-1.4118,-1.4101,-1.4095,-1.4081,-1.4071,-1.4065,-1.4049,-1.4043,-1.4029,-1.4013,-1.3996,-1.3985,-1.3969,-1.3947,-1.3942,-1.3938,-1.3938,-1.3937,-1.3935,-1.3923,-1.3921,-1.3941,-1.3941,-1.3941,0,0,-1.4146,-1.4133,-1.4125,-1.4102,-1.409,-1.4075,-1.4075,-1.4059,-1.4048,-1.404,-1.4019,-1.4009,-1.399,-1.3969,-1.3959,-1.396,-1.3929,-1.3936,-1.3935,-1.3934,-1.3922,-1.392,-1.3918,-1.394,-1.394,-1.3941,0,0,-1.4132,-1.4121,-1.4106,-1.4095,-1.4078,-1.4069,-1.4065,-1.4047,-1.404,-1.402,-1.4014,-1.3999,-1.3971,-1.3958,-1.3948,-1.3931,-1.3926,-1.3926,-1.3921,-1.3909,-1.3908,-1.3906,-1.39,-1.3898,-1.3924,-1.3924,-1.3924,0,-1.4129,-1.4107,-1.4098,-1.4083,-1.4073,-1.4067,-1.4052,-1.4041,-1.4019,-1.4012,-1.4013,-1.3978,-1.3965,-1.3941,-1.3937,-1.3929,-1.3924,-1.3928,-1.3909,-1.3907,-1.3906,-1.39,-1.3898,-1.3924,-1.3924,-1.3924,-1.3924,0,-1.4105,-1.409,-1.408,-1.406,-1.4049,-1.4034,-1.4022,-1.4012,-1.4007,-1.3998,-1.3977,-1.3962,-1.3943,-1.3936,-1.393,-1.3912,-1.3913,-1.3912,-1.3914,-1.3904,-1.3898,-1.3896,-1.3924,-1.3924,-1.3924,-1.3924,0,0,-1.409,-1.4068,-1.4064,-1.4056,-1.4037,-1.4025,-1.401,-1.3992,-1.3984,-1.3969,-1.3955,-1.3932,-1.3931,-1.392,-1.3913,-1.3903,-1.3891,-1.3903,-1.3903,-1.3901,-1.3869,-1.3869,-1.3867,-1.3888,-1.3887,-1.3887,-1.387,0,-1.4074,-1.4047,-1.4039,-1.4017,-1.4003,-1.3997,-1.3984,-1.3971,-1.3962,-1.3948,-1.3938,-1.3922,-1.3923,-1.3916,-1.3906,-1.3894,-1.3884,-1.3895,-1.3874,-1.3874,-1.3879,-1.3864,-1.3864,-1.3849,-1.3868,-1.3868,-1.3867,0,-1.405,-1.4037,-1.4014,-1.3998,-1.3992,-1.398,-1.3964,-1.3951,-1.3936,-1.393,-1.3919,-1.3913,-1.3896,-1.39,-1.3876,-1.3884,-1.3876,-1.3869,-1.3868,-1.3865,-1.387,-1.386,-1.3844,-1.3842,-1.3864,-1.3864,-1.3864,0,-1.4042,-1.4018,-1.4001,-1.3994,-1.3976,-1.3968,-1.3959,-1.3945,-1.3935,-1.3921,-1.3914,-1.3898,-1.3888,-1.3875,-1.3865,-1.3869,-1.3843,-1.3845,-1.3837,-1.3837,-1.3831,-1.3831,-1.3813,-1.3826,-1.3826,-1.3826,-1.3826,0,-1.4024,-1.401,-1.3998,-1.3987,-1.3971,-1.3962,-1.3946,-1.3937,-1.3925,-1.3912,-1.3906,-1.3894,-1.3882,-1.3868,-1.386,-1.3842,-1.3837,-1.3832,-1.383,-1.3832,-1.3833,-1.3826,-1.3826,-1.3825,-1.3825,-1.3826,-1.3826,0,-1.4012,-1.4003,-1.3984,-1.3969,-1.3965,-1.3954,-1.394,-1.3929,-1.3921,-1.3905,-1.3901,-1.3887,-1.3871,-1.386,-1.3838,-1.3833,-1.3813,-1.3811,-1.3819,-1.3818,-1.381,-1.3811,-1.3785,-1.3782,-1.3798,-1.3798,-1.3797,0,-1.4001,-1.399,-1.3974,-1.3966,-1.3958,-1.3945,-1.3935,-1.3926,-1.3917,-1.39,-1.3891,-1.3875,-1.3861,-1.3835,-1.3823,-1.3806,-1.3804,-1.3796,-1.3801,-1.3804,-1.3804,-1.3804,-1.3803,-1.3795,-1.3795,-1.3795,-1.3795,0,-1.3982,-1.3979,-1.3966,-1.3952,-1.3942,-1.393,-1.3918,-1.3911,-1.39,-1.389,-1.3874,-1.3863,-1.3842,-1.3826,-1.3809,-1.3799,-1.3795,-1.3794,-1.3791,-1.3793,-1.3798,-1.3795,-1.3816,-1.3794,-1.3794,-1.3794,-1.3794,-1.3794,-1.397,-1.396,-1.3948,-1.3934,-1.3925,-1.3914,-1.3904,-1.3895,-1.3882,-1.3865,-1.3861,-1.3844,-1.383,-1.3807,-1.3798,-1.3784,-1.3784,-1.378,-1.3779,-1.3778,-1.3778,-1.3801,-1.3781,-1.3781,-1.3781,-1.3781,-1.3781,0,-1.395,-1.3943,-1.393,-1.3915,-1.3904,-1.3903,-1.389,-1.3881,-1.3867,-1.3855,-1.3842,-1.3824,-1.3809,-1.3796,-1.378,-1.3772,-1.3769,-1.3768,-1.3768,-1.3766,-1.3779,-1.3783,-1.377,-1.377,-1.377,-1.377,-1.377,-1.377,-1.3939,-1.3923,-1.3919,-1.3898,-1.389,-1.3875,-1.3868,-1.3858,-1.3848,-1.3829,-1.3817,-1.3809,-1.3797,-1.378,-1.3766,-1.3763,-1.3757,-1.3755,-1.3752,-1.3764,-1.3765,-1.3766,-1.377,-1.3754,-1.3754,-1.374,-1.374,-1.374]},{"header":{"parameterUnit":"m.s-1","parameterCategory":1,"la1":30.2991,"la2":30.254,"lo1":-89.0895,"lo2":-89.0444,"dy":0.0017,"dx":0.0017,"nx":28,"ny":28,"refTime":"2024-07-01T21:00:00:Z","depth":0,"parameterNumber":3,"parameterNumberName":"V-component_of_WINDS"},"data":[0,0,0,0,0,0,0,0,0,0,0,0,0,0,0,0,0,0,0,0,0,0,0,0,0,0,0,0,0,0,0,0,0,0,0,0,0,0,0,0,0,0,0,0,0,0,0,0,0,0,0,0,0,0,0,0,0,0,-0.8548,-0.8549,0,-0.8604,-0.8604,-0.8605,-0.8756,-0.8759,-0.8763,-0.8766,-0.8818,-0.8817,-0.8815,0,0,0,0,0,0,0,0,0,0,0,0,0,-0.8571,-0.8569,-0.8548,-0.8549,-0.8549,-0.8604,-0.8604,-0.8605,-0.8756,-0.876,-0.8764,-0.8767,-0.8819,-0.8817,-0.8815,0,0,0,0,0,0,0,0,0,0,0,0,0,-0.8587,-0.8569,-0.8548,-0.8631,-0.8639,-0.8603,-0.8604,-0.8605,-0.8755,-0.876,-0.8765,-0.8769,-0.882,-0.8817,-0.8815,-0.8701,0,0,-0.8807,-0.8806,0,0,0,0,0,0,0,0,-0.8586,-0.8586,-0.8618,-0.8625,-0.8634,-0.8678,-0.8632,-0.8637,-0.8754,-0.8711,-0.8766,-0.8772,-0.8767,-0.877,-0.8769,-0.8704,-0.8706,-0.8807,-0.8805,-0.8804,-0.8804,0,0,0,0,0,0,0,-0.8584,-0.8584,-0.857,-0.8618,-0.8628,-0.8665,-0.8673,-0.8634,-0.8711,-0.8715,-0.8726,-0.8731,-0.8773,-0.8771,-0.8771,-0.8707,-0.8807,-0.8805,-0.8803,-0.8802,-0.8557,-0.8552,0,0,0,0,0,0,-0.8572,-0.8582,-0.8568,-0.8572,-0.8622,-0.8661,-0.867,-0.8659,-0.8712,-0.8724,-0.8726,-0.8738,-0.8773,-0.8774,-0.8774,-0.8648,-0.8804,-0.8802,-0.8801,-0.8562,-0.8556,-0.855,0,0,0,0,0,0,-0.8571,-0.8569,-0.8566,-0.858,-0.8583,-0.8655,-0.8642,-0.8657,-0.8656,-0.8721,-0.8735,-0.8711,-0.8777,-0.8777,-0.872,-0.8652,-0.8801,-0.8799,-0.8568,-0.856,-0.8553,-0.8394,0,0,0,0,0,0,-0.8571,-0.8568,-0.8526,-0.8578,-0.8581,-0.8511,-0.8638,-0.8655,-0.8652,-0.8667,-0.871,-0.8721,-0.8781,-0.8723,-0.8717,-0.8651,-0.8797,-0.8574,-0.8564,-0.8555,-0.8405,-0.8382,-0.8361,0,0,0,0,0,-0.8572,-0.8477,-0.8523,-0.852,-0.853,-0.8506,-0.8508,-0.858,-0.8646,-0.8604,-0.8646,-0.872,-0.866,-0.8715,-0.8711,-0.8643,-0.8579,-0.8567,-0.8556,-0.8415,-0.8386,-0.8362,0,0,0,0,0,0,-0.8411,-0.8485,-0.8537,-0.8456,-0.8474,-0.8532,-0.8481,-0.8546,-0.8545,-0.8559,-0.8646,-0.8655,-0.8586,-0.8608,-0.8669,-0.8539,-0.8632,-0.8619,-0.8526,-0.8499,-0.8478,-0.8474,-0.8795,0,0,0,0,0,-0.8367,-0.8343,-0.8408,-0.833,-0.8337,-0.8407,-0.8399,-0.8454,-0.8475,-0.8483,-0.8521,-0.8538,-0.8525,-0.8513,-0.8503,-0.8409,-0.8422,-0.8361,-0.8339,-0.832,-0.8308,-0.8265,-0.8239,-0.8513,-0.8513,-0.8513,0,0,-0.8274,-0.8312,-0.829,-0.8299,-0.832,-0.8293,-0.8412,-0.8378,-0.8359,-0.8478,-0.8427,-0.8455,-0.8481,-0.8406,-0.8374,-0.8423,-0.8236,-0.8306,-0.8291,-0.8289,-0.825,-0.8224,-0.8201,-0.8505,-0.8506,-0.8508,0,0,-0.8093,-0.8117,-0.8057,-0.8076,-0.8107,-0.8156,-0.8141,-0.819,-0.8214,-0.8165,-0.8255,-0.8233,-0.8206,-0.8222,-0.8226,-0.8055,-0.8123,-0.8049,-0.7934,-0.789,-0.7869,-0.785,-0.7792,-0.777,-0.8037,-0.8036,-0.8036,0,-0.7973,-0.7937,-0.8018,-0.7979,-0.7981,-0.809,-0.8031,-0.8045,-0.807,-0.8069,-0.8123,-0.8094,-0.8119,-0.8051,-0.801,-0.8008,-0.7996,-0.8045,-0.7866,-0.7848,-0.7832,-0.7777,-0.7755,-0.8027,-0.8028,-0.8029,-0.803,0,-0.7791,-0.7764,-0.7712,-0.7737,-0.7733,-0.7684,-0.7757,-0.7744,-0.7799,-0.7841,-0.7792,-0.7825,-0.7826,-0.7814,-0.7866,-0.7754,-0.7784,-0.785,-0.7946,-0.7795,-0.7746,-0.7725,-0.8014,-0.8017,-0.802,-0.8022,0,0,-0.7507,-0.7581,-0.756,-0.7575,-0.7619,-0.76,-0.7556,-0.756,-0.7548,-0.7562,-0.7529,-0.7505,-0.7569,-0.7573,-0.7628,-0.7589,-0.7456,-0.7662,-0.7664,-0.7624,-0.7339,-0.729,-0.7265,-0.7501,-0.7498,-0.7495,-0.7338,0,-0.7338,-0.727,-0.7343,-0.726,-0.7239,-0.7343,-0.7306,-0.7329,-0.7368,-0.7355,-0.7398,-0.7382,-0.7465,-0.7469,-0.7435,-0.7479,-0.74,-0.7491,-0.7473,-0.7471,-0.7465,-0.7238,-0.7186,-0.7036,-0.7319,-0.7315,-0.7313,0,-0.7132,-0.714,-0.7055,-0.7109,-0.7102,-0.7067,-0.7079,-0.7065,-0.7094,-0.7125,-0.7133,-0.72,-0.7163,-0.7255,-0.7206,-0.7266,-0.7263,-0.7284,-0.728,-0.7282,-0.7384,-0.7237,-0.699,-0.6968,-0.7283,-0.7285,-0.7287,0,-0.6938,-0.6927,-0.6877,-0.6885,-0.6945,-0.6919,-0.6942,-0.6976,-0.6975,-0.6984,-0.6985,-0.6988,-0.699,-0.6992,-0.7059,-0.712,-0.7002,-0.7099,-0.7029,-0.7027,-0.7,-0.7001,-0.6751,-0.6994,-0.6994,-0.6994,-0.6995,0,-0.6742,-0.6687,-0.6791,-0.676,-0.6702,-0.6787,-0.6727,-0.6761,-0.6791,-0.6769,-0.6858,-0.6835,-0.6925,-0.6912,-0.6964,-0.6917,-0.6917,-0.6942,-0.6957,-0.6935,-0.6932,-0.6935,-0.6948,-0.6988,-0.699,-0.6991,-0.6992,0,-0.6516,-0.6583,-0.6536,-0.6598,-0.6612,-0.6567,-0.662,-0.6594,-0.6641,-0.6612,-0.661,-0.6682,-0.6672,-0.6739,-0.674,-0.6776,-0.6704,-0.6736,-0.6695,-0.6706,-0.6632,-0.6639,-0.6377,-0.6349,-0.6606,-0.6604,-0.6602,0,-0.6388,-0.6349,-0.6408,-0.6401,-0.6421,-0.6407,-0.6408,-0.649,-0.6486,-0.6519,-0.6489,-0.6487,-0.649,-0.6468,-0.6521,-0.6523,-0.6557,-0.6465,-0.6558,-0.6539,-0.6559,-0.6562,-0.656,-0.6446,-0.6443,-0.644,-0.6438,0,-0.6155,-0.6191,-0.6189,-0.6199,-0.6198,-0.6209,-0.6226,-0.6215,-0.6304,-0.6296,-0.6288,-0.629,-0.6294,-0.6291,-0.6305,-0.6329,-0.6399,-0.6409,-0.6393,-0.6371,-0.635,-0.6364,-0.6645,-0.6414,-0.6417,-0.6418,-0.642,-0.6421,-0.5976,-0.5947,-0.5986,-0.5982,-0.6004,-0.6019,-0.5999,-0.6045,-0.604,-0.6051,-0.61,-0.6083,-0.6117,-0.6143,-0.6161,-0.615,-0.6194,-0.617,-0.6165,-0.6158,-0.6147,-0.6351,-0.6152,-0.6153,-0.6154,-0.6154,-0.6155,0,-0.575,-0.5781,-0.5776,-0.5799,-0.5796,-0.5864,-0.5888,-0.588,-0.5866,-0.5892,-0.5894,-0.5887,-0.5885,-0.5939,-0.5945,-0.5926,-0.5958,-0.5925,-0.5928,-0.5933,-0.6105,-0.612,-0.5899,-0.5899,-0.5899,-0.5899,-0.5899,-0.5899,-0.5632,-0.5589,-0.563,-0.56,-0.5631,-0.5618,-0.5626,-0.5641,-0.5663,-0.5652,-0.5652,-0.5688,-0.5726,-0.5736,-0.5738,-0.5754,-0.5753,-0.5709,-0.5736,-0.5896,-0.592,-0.5944,-0.5959,-0.5708,-0.5707,-0.5566,-0.5564,-0.5563]}]]